Regional Weather Roundup
Issued by NWS Glasgow, MT

Home | Current Version | Previous Version | Text Only | Print | Product List | Glossary On
Versions: 1 2 3 4 5 6 7 8 9 10 11 12 13 14 15 16 17 18 19 20 21 22 23 24 25 26 27 28 29 30 31 32 33 34 35 36 37 38 39 40 41 42 43 44 45 46 47 48 49 50
000
ASUS45 KGGW 221015
RWRGGW
HOURLY WEATHER ROUNDUP FOR NORTHEAST MONTANA
NATIONAL WEATHER SERVICE GLASGOW MONTANA
400 AM MDT MON SEP 22 2014

NOTE: "FAIR" INDICATES FEW OR NO CLOUDS BELOW 12,000 FEET WITH NO
SIGNIFICANT WEATHER AND/OR OBSTRUCTIONS TO VISISBILITY.

NORTHEAST MONTANA


CITY           SKY/WX    TMP DP  RH WIND       PRES   REMARKS
GLASGOW        CLEAR     50  35  56 E13       29.99F
PLENTYWOOD       N/A     47  32  56 E5          N/A
WOLF POINT     CLEAR     44  35  70 E6        30.03F
JORDAN           N/A     51  38  60 E3        29.99F
WINNETT          N/A     42  40  92 CALM        N/A
SIDNEY         CLEAR     39  34  81 CALM      30.08F
GLENDIVE       NOT AVBL
MALTA            N/A     50  43  77 CALM        N/A
OPHEIM           N/A     48  32  53 S6        29.84F

FORT PECK REPORTS


CITY           SKY/WX    TMP DP  RH WIND       PRES   REMARKS
FORT PECK        N/A     61  41  47 E7          N/A
THE PINES        N/A     60  38  43 S8          N/A

SOUTHEAST MONTANA


CITY           SKY/WX    TMP DP  RH WIND       PRES   REMARKS
BILLINGS       CLOUDY    57  43  59 SW6       30.01S
MILES CITY     CLEAR     59  38  45 SE12      30.02F
BAKER          PTCLDY    48  36  63 SE12      30.10F
LIVINGSTON     MOCLDY    53  44  71 NW10      30.05F

CENTRAL MONTANA


CITY           SKY/WX    TMP DP  RH WIND       PRES   REMARKS
HAVRE          CLEAR     44  42  93 W6        29.93R
LEWISTOWN      PTCLDY    46  40  79 SE6       30.00F
GREAT FALLS    CLEAR     56  44  64 S10       29.95F
CUT BANK       PTCLDY    46  41  82 NW6       29.95F
HELENA         PTCLDY    54  44  69 CALM      30.02S
BUTTE          MOCLDY    49  40  71 SE5       30.12S
BOZEMAN        CLOUDY    53  47  79 S6        30.08R

WESTERN MONTANA


CITY           SKY/WX    TMP DP  RH WIND       PRES   REMARKS
MISSOULA       PTCLDY    54  42  64 CALM      29.98S
KALISPELL      NOT AVBL

NORTH DAKOTA


CITY           SKY/WX    TMP DP  RH WIND       PRES   REMARKS
WILLISTON      CLEAR     42  36  79 CALM      30.08F
DICKINSON      CLEAR     47  39  74 S13       30.11F
MINOT          CLEAR     54  42  64 S8        30.11S
BISMARCK       CLEAR     44  41  89 E3        30.18S

SOUTHERN SASKATCHEWAN


CITY           SKY/WX    TMP DP  RH WIND       PRES   REMARKS
REGINA         CLEAR     43  39  87 SE9       30.03F
MOOSE JAW      CLEAR     45  41  87 SE8       30.00
ESTEVAN        CLEAR     43  39  87 CALM      30.08F
SWIFT CURRENT  CLEAR     57  37  47 S23G29    29.92F




USA.gov is the U.S. government's official web portal to all federal, state and local government web resources and services.